Weather History for Warrensburg, MO

Change the Weather History Date:

Sunday, May 19, 2013

  Actual Average (KSZL) Record (KSZL)
Temperature  
Mean Temperature 72 °F -  
Max Temperature 86 °F 73 °F 91 °F (1998)
Min Temperature 59 °F 54 °F 44 °F (2002)
Cooling Degree Days 8    
Growing Degree Days 22 (Base 50)    
Moisture  
Dew Point 62 °F    
Average Humidity 71    
Maximum Humidity 94    
Minimum Humidity 45    
Precipitation  
Precipitation 0.08 in - - ()
Sea Level Pressure  
Sea Level Pressure 29.73 in    
Wind  
Wind Speed 9 mph (SSE)    
Max Wind Speed 23 mph    
Max Gust Speed 34 mph    
Visibility 10 miles    
Events Rain , Thunderstorm    
Averages and records for this station are not official NWS values.
T = Trace of Precipitation, MM = Missing Value Source: NWS Daily Summary

Daily Weather History Graph

Daily Weather History Graph

Search for Another Location

Airport:

Trip Planner

Search our weather history database for the weather conditions in past years. The results will help you decide how hot, cold, wet, or windy it might be!

Date:

Astronomy

May. 19, 2013 Rise Set
Actual Time 5:59 AM CDT 8:24 PM CDT
Civil Twilight 5:29 AM CDT 8:54 PM CDT
Nautical Twilight 4:51 AM CDT 9:32 PM CDT
Astronomical Twilight 4:10 AM CDT 10:14 PM CDT
Moon 2:32 PM CDT (5/19) 2:19 AM CDT (5/19)
Length of Visible Light 15h 25m
Length of Day
14h 24m
Waxing Gibbous, 65% of the Moon is Illuminated
May 19
Waxing Gibbous
May 24
Full
May 31
Last Quarter
Jun 8
New
Jun 16
First Quarter

Hourly Weather History & Observations

Time (CDT) Temp. Heat Index Dew Point Humidity Pressure Visibility Wind Dir Wind Speed Gust Speed Precip Events Conditions
12:15 AM 75.2 °F - 68.0 °F 78% 29.80 in 10.0 mi SSE 9.2 mph - N/A   Clear
12:35 AM 75.2 °F - 68.0 °F 78% 29.83 in 10.0 mi South 9.2 mph - N/A   Clear
12:55 AM 75.2 °F - 68.0 °F 78% 29.83 in 10.0 mi South 9.2 mph - N/A   Clear
1:15 AM 73.4 °F - 68.0 °F 83% 29.81 in 10.0 mi SSE 10.4 mph - N/A   Clear
1:35 AM 73.4 °F - 68.0 °F 83% 29.81 in 10.0 mi SSE 8.1 mph - N/A   Clear
1:55 AM 73.4 °F - 68.0 °F 83% 29.80 in 10.0 mi SSE 9.2 mph - N/A   Clear
2:15 AM 73.4 °F - 68.0 °F 83% 29.80 in 10.0 mi SSE 6.9 mph - N/A   Clear
2:35 AM 71.6 °F - 68.0 °F 88% 29.80 in 10.0 mi SSE 6.9 mph - N/A   Clear
2:55 AM 71.6 °F - 68.0 °F 88% 29.81 in 10.0 mi Calm Calm - N/A   Mostly Cloudy
3:15 AM 71.6 °F - 59.0 °F 64% 29.83 in 10.0 mi NNW 6.9 mph - N/A   Overcast
3:35 AM 69.8 °F - 57.2 °F 64% 29.83 in 10.0 mi Calm Calm - N/A   Overcast
3:55 AM 69.8 °F - 57.2 °F 64% 29.83 in 10.0 mi North 3.5 mph - N/A Rain , Thunderstorm Light Thunderstorms and Rain
4:15 AM 69.8 °F - 59.0 °F 68% 29.85 in 10.0 mi WNW 6.9 mph - N/A Thunderstorm Overcast
4:35 AM 68.0 °F - 59.0 °F 73% 29.81 in 10.0 mi NNW 9.2 mph - N/A   Scattered Clouds
4:55 AM 66.2 °F - 57.2 °F 73% 29.79 in 10.0 mi NNE 9.2 mph - N/A   Clear
5:15 AM 64.4 °F - 57.2 °F 77% 29.75 in 10.0 mi NE 9.2 mph - N/A   Clear
5:35 AM 64.4 °F - 57.2 °F 77% 29.74 in 10.0 mi ENE 8.1 mph - N/A   Clear
5:55 AM 64.4 °F - 57.2 °F 77% 29.76 in 10.0 mi East 3.5 mph - N/A   Clear
6:15 AM 64.4 °F - 57.2 °F 77% 29.78 in 10.0 mi SSE 3.5 mph - N/A   Clear
6:35 AM 64.4 °F - 59.0 °F 83% 29.80 in 10.0 mi SSE 5.8 mph - N/A   Clear
6:55 AM 66.2 °F - 59.0 °F 78% 29.82 in 10.0 mi SSE 5.8 mph - N/A   Scattered Clouds
7:15 AM 68.0 °F - 60.8 °F 78% 29.84 in 10.0 mi South 5.8 mph - N/A   Mostly Cloudy
7:35 AM 69.8 °F - 62.6 °F 78% 29.86 in 10.0 mi SSW 8.1 mph - N/A   Mostly Cloudy
7:55 AM 71.6 °F - 64.4 °F 78% 29.85 in 10.0 mi SSW 10.4 mph - N/A   Scattered Clouds
8:15 AM 69.8 °F - 60.8 °F 73% 29.86 in 10.0 mi WSW 10.4 mph 17.3 mph N/A Rain , Thunderstorm Light Thunderstorms and Rain
8:35 AM 68.0 °F - 60.8 °F 78% 29.82 in 10.0 mi NE 5.8 mph - N/A Rain , Thunderstorm Light Thunderstorms and Rain
8:55 AM 66.2 °F - 62.6 °F 88% 29.74 in 10.0 mi NNE 10.4 mph 13.8 mph N/A Rain Light Rain
9:15 AM 69.8 °F - 62.6 °F 78% 29.76 in 10.0 mi SE 9.2 mph - N/A   Scattered Clouds
9:35 AM 69.8 °F - 62.6 °F 78% 29.76 in 10.0 mi SSE 5.8 mph - N/A   Clear
9:55 AM 69.8 °F - 60.8 °F 73% 29.77 in 10.0 mi SSE 9.2 mph - N/A   Clear
10:15 AM 71.6 °F - 62.6 °F 73% 29.77 in 10.0 mi SSE 8.1 mph - N/A   Scattered Clouds
10:35 AM 71.6 °F - 62.6 °F 73% 29.77 in 10.0 mi SSE 8.1 mph - N/A   Mostly Cloudy
10:55 AM 73.4 °F - 62.6 °F 69% 29.77 in 10.0 mi SE 10.4 mph - N/A   Overcast
11:15 AM 75.2 °F - 62.6 °F 65% 29.76 in 10.0 mi SE 9.2 mph - N/A   Overcast
11:55 AM 77.0 °F - 62.6 °F 61% 29.74 in 10.0 mi SE 11.5 mph - N/A   Overcast
12:15 PM 77.0 °F - 62.6 °F 61% 29.73 in 10.0 mi SE 12.7 mph 18.4 mph N/A   Overcast
12:35 PM 78.8 °F - 64.4 °F 61% 29.72 in 10.0 mi SE 16.1 mph 23.0 mph N/A   Scattered Clouds
12:55 PM 80.6 °F 82.3 °F 64.4 °F 58% 29.71 in 10.0 mi SSE 13.8 mph 24.2 mph N/A   Clear
1:15 PM 82.4 °F 83.9 °F 64.4 °F 54% 29.70 in 10.0 mi SSE 13.8 mph 23.0 mph N/A   Scattered Clouds
1:35 PM 80.6 °F 82.3 °F 64.4 °F 58% 29.70 in 10.0 mi South 19.6 mph 25.3 mph N/A   Mostly Cloudy
1:55 PM 80.6 °F 82.7 °F 66.2 °F 61% 29.69 in 10.0 mi South 13.8 mph 24.2 mph N/A   Mostly Cloudy
2:15 PM 80.6 °F 82.7 °F 66.2 °F 61% 29.69 in 10.0 mi SSE 11.5 mph 24.2 mph N/A   Mostly Cloudy
2:35 PM 82.4 °F 84.6 °F 66.2 °F 58% 29.68 in 10.0 mi South 13.8 mph 19.6 mph N/A   Overcast
2:55 PM 82.4 °F 83.9 °F 64.4 °F 54% 29.67 in 10.0 mi SSE 15.0 mph 23.0 mph N/A   Overcast
3:15 PM 82.4 °F 83.9 °F 64.4 °F 54% 29.66 in 10.0 mi SSE 12.7 mph 21.9 mph N/A   Overcast
3:35 PM 84.2 °F 85.0 °F 62.6 °F 48% 29.65 in 10.0 mi SSE 17.3 mph 25.3 mph N/A   Mostly Cloudy
3:55 PM 84.2 °F 85.6 °F 64.4 °F 51% 29.64 in 10.0 mi SSE 13.8 mph 21.9 mph N/A   Mostly Cloudy
4:15 PM 82.4 °F 83.9 °F 64.4 °F 54% 29.62 in 10.0 mi SSE 15.0 mph 20.7 mph N/A   Scattered Clouds
4:35 PM 86.0 °F 87.3 °F 64.4 °F 48% 29.61 in 10.0 mi South 15.0 mph 19.6 mph N/A   Scattered Clouds
4:55 PM 86.0 °F 86.6 °F 62.6 °F 45% 29.63 in 10.0 mi South 16.1 mph 20.7 mph N/A   Mostly Cloudy
5:15 PM 82.4 °F 83.4 °F 62.6 °F 51% 29.63 in 10.0 mi South 12.7 mph 18.4 mph N/A   Mostly Cloudy
5:35 PM 82.4 °F 83.4 °F 62.6 °F 51% 29.58 in 10.0 mi SE 13.8 mph - N/A   Scattered Clouds
5:55 PM 82.4 °F 83.9 °F 64.4 °F 54% 29.57 in 10.0 mi SE 11.5 mph 19.6 mph N/A   Clear
6:15 PM 82.4 °F 83.4 °F 62.6 °F 51% 29.58 in 10.0 mi SSE 9.2 mph 17.3 mph N/A   Clear
6:35 PM 82.4 °F 83.4 °F 62.6 °F 51% 29.58 in 10.0 mi SSE 8.1 mph - N/A   Clear
6:55 PM 80.6 °F 81.8 °F 62.6 °F 54% 29.60 in 10.0 mi South 9.2 mph - N/A   Mostly Cloudy
7:15 PM 80.6 °F 81.8 °F 62.6 °F 54% 29.60 in 10.0 mi South 8.1 mph - N/A Thunderstorm Thunderstorm
7:35 PM 69.8 °F - 62.6 °F 78% 29.64 in 7.0 mi South 10.4 mph 27.6 mph 0.01 in Rain , Thunderstorm Light Thunderstorms and Rain
7:55 PM 68.0 °F - 60.8 °F 78% 29.64 in 10.0 mi South 10.4 mph - 0.03 in Rain , Thunderstorm Light Thunderstorms and Rain
8:15 PM 68.0 °F - 62.6 °F 83% 29.66 in 10.0 mi South 8.1 mph - 0.01 in   Scattered Clouds
8:55 PM 62.6 °F - 59.0 °F 88% 29.73 in 2.0 mi SW 8.1 mph 23.0 mph 0.02 in Rain , Thunderstorm Heavy Thunderstorms and Rain
9:15 PM 62.6 °F - 59.0 °F 88% 29.70 in 10.0 mi ESE 6.9 mph - N/A   Mostly Cloudy
9:35 PM 62.6 °F - 59.0 °F 88% 29.70 in 10.0 mi East 5.8 mph - 0.01 in Rain Light Rain
9:55 PM 62.6 °F - 59.0 °F 88% 29.68 in 10.0 mi ESE 5.8 mph - 0.02 in Rain Light Rain
10:35 PM 60.8 °F - 57.2 °F 88% 29.74 in 7.0 mi SW 10.4 mph 32.2 mph N/A Rain , Thunderstorm Light Thunderstorms and Rain
10:55 PM 62.6 °F - 57.2 °F 82% 29.84 in 5.0 mi SSW 23.0 mph 34.5 mph 0.01 in Rain , Thunderstorm Heavy Thunderstorms and Rain
11:15 PM 59.0 °F - 55.4 °F 88% 29.73 in 10.0 mi SSW 9.2 mph 13.8 mph N/A Rain , Thunderstorm Light Thunderstorms and Rain
11:35 PM 59.0 °F - 57.2 °F 94% 29.70 in 10.0 mi SE 12.7 mph 20.7 mph N/A Rain , Thunderstorm Light Thunderstorms and Rain
11:55 PM 59.0 °F - 55.4 °F 88% 29.73 in 10.0 mi SE 10.4 mph - N/A   Light Drizzle